12 Oct
2006
12 Oct
'06
10:30 p.m.
ISS 1 25544U 98067A 06285.98420664 .00007505 00000-0 49352-4 0 8498 2 25544 051.6353 300.5949 0013135 090.2623 352.0864 15.76844687451745
6644
Age (days ago)
6644
Last active (days ago)
0 comments
1 participants
participants (1)
-
Dave Larsen PhD